STARLINK-1883 (46785 NORAD) Tracking and Keplerian Element Data

This shows tracking and keplerian element data for the satellite.

Feedback or suggestion? Click here.




ElementValue
Catalog46785
NameSTARLINK-1883
Epoch Orbit183
Epoch Day327.91667824
Epoch Year2020
RAAN16.6776
Inclination53.0558
Eccentricity0.0001436
Argument of Perigee55.7192
Mean Anonmoly214.3644
Mean Motion15.62742706
Decay Rate0.00065995
L11 46785U 20074AY 20327.91667824 .00065995 00000-0 72103-3 0 9990
L22 46785 53.0558 16.6776 0001436 55.7192 214.3644 15.62742706 1830

Live tracking and technical data element details for STARLINK-1883 (NORAD 46785). STARLINK-1883 can be tracked NOW for your location showing map with azimuth and elevation plus other details from your city location.

Track the satellite on the map from your city or location and see movement details for azimuth, elevation, latitude, longitude, range, height, and movement on the map or in text.







IsCatalogInMostPopularTable: catalog: 46785, numindb: 6
Update: records affected: 1



GetName: 46785 STARLINK-1883

Hit Count: updated at: Tue, 24 Nov 2020 12:24:31 GMT